Regional Weather Roundup
Issued by NWS State College, PA

Home | Current Version | Previous Version | Text Only | Print | Product List | Glossary Off
Versions: 1 2 3 4 5 6 7 8 9 10 11 12 13 14 15 16 17 18 19 20 21 22 23 24 25 26 27 28 29 30 31 32 33 34 35 36 37 38 39 40 41 42 43 44 45 46 47 48 49 50

000
ASUS41 KCTP 250510
RWRCTP

REGIONAL WEATHER ROUNDUP
NATIONAL WEATHER SERVICE STATE COLLEGE PA
100 AM EDT THU AUG 25 2016

Note: "fair" indicates few or no clouds below 12,000 feet with no
significant weather and/or obstructions to visibility.

* = STATION THAT DOES NOT REPORT PRECIPITATION /E.G. RAIN...SNOW...ETC/
    THUNDER OR FOG.

PAZ002>004-007>009-013>016-020>023-029>032-250600-
WESTERN PENNSYLVANIA

CITY           SKY/WX    TMP DP  RH WIND       PRES   REMARKS
ERIE           CLOUDY    79  66  64 S15G22    29.98F
MEADVILLE      MOCLDY    72  63  73 S6        30.05F
FRANKLIN*      MOCLDY    72  63  73 S10       30.08F
NEW CASTLE     FAIR      74  67  78 VRB3      30.06F
BEAVER COUNTY  NOT AVBL
BUTLER*        NOT AVBL
PITTSBURGH INT CLOUDY    74  65  73 S8        30.08F
PITTSBURGH     CLOUDY    73  64  73 S7        30.09F
INDIANA*       PTCLDY    70  64  83 SE5       30.14F
LATROBE        CLOUDY    68  66  94 SW3       30.11F
WASHINGTON CO* MOCLDY    72  64  78 S5        30.11S
$$

PAZ004>006-010>012-017>019-024>028-033>037-041-042-045-046-049>053-250600-
CENTRAL PENNSYLVANIA

CITY           SKY/WX    TMP DP  RH WIND       PRES   REMARKS
BRADFORD       CLOUDY    70  61  73 VRB5      30.12F
DUBOIS         CLOUDY    71  60  68 S3        30.11F
CLEARFIELD     CLOUDY    64  62  93 N3        30.13F
JOHNSTOWN      CLEAR     69  64  84 S7        30.17F
ALTOONA        CLEAR     66  65  96 CALM      30.15F
STATE COLLEGE  CLOUDY    69  65  86 S5        30.13F
WILLIAMSPORT   CLEAR     73  64  73 NE10      30.11S
SELINSGROVE    CLEAR     71  67  87 S3        30.13F
FT INDIANTOWN  CLEAR     65  64  97 CALM      30.15F
CAPITAL CITY   CLEAR     73  64  73 E7        30.14F
HARRISBURG     MOCLDY    73  67  81 S6        30.14F
YORK           CLEAR     70  62  76 VRB3      30.16F
$$

PAZ038>040-043-044-047-048-054-055-060>062-067>071-250600-
EASTERN PENNSYLVANIA

CITY           SKY/WX    TMP DP  RH WIND       PRES   REMARKS
SCRANTON       PTCLDY    70  63  78 W8        30.15F
MOUNT POCONO   PTCLDY    64  32  30 W5        30.21F
ALLENTOWN      CLEAR     67  61  81 SW3       30.17R
QUAKERTOWN*    CLEAR     66  63  88 CALM      30.18F
READING        PTCLDY    71  61  70 CALM      30.16S
LANCASTER      CLEAR     67  64  90 E3        30.16F
COATESVILLE    CLEAR     66  63  88 CALM      30.20S
POTTSTOWN      PTCLDY    67  63  87 CALM      30.19F
BLUE BELL      CLEAR     68  63  83 S5        30.17F
DOYLESTOWN     PTCLDY    70  63  78 VRB5      30.17F
WILLOW GROVE   NOT AVBL
NORTH PHILA    PTCLDY    73  65  75 S5        30.19F
PHILADELPHIA   PTCLDY    71  63  75 S7        30.18F
$$



USA.gov is the U.S. government's official web portal to all federal, state and local government web resources and services.